Location: Antin
(43.3330°N, 0.2804°E)
Time: 22:59:05
(UTC+00:00)

SME Rocket - Pass Details

Date: 04 June 2022
Orbit: 551 x 2650 km, 99.9° (Epoch: 01 July)

Event Time Altitude Azimuth Distance (km) Brightness Sun altitude
Exits shadow 23:51:48 - 99° (E) 2,302 5.9 -24.1°
Reaches altitude 10° 23:51:57 10° 98° (E) 2,265 5.8 -24.1°
Maximum altitude 23:55:31 20° 51° (NE) 1,929 6.0 -24.1°
Drops below altitude 10° 00:00:04 10° 6° (N) 2,999 7.6 -24.1°
Sets 00:03:52 0° 352° (N) 4,342 8.7 -24.1°
